Location: Juniper Campground
(35.7953°N, 106.2814°W)
Time: 19:37:08
(UTC-06:00)

ISS - Visible Passes

Search period start: 21 August 2018 00:00
Search period end: 31 August 2018 00:00
Orbit: 401 x 409 km, 51.6° (Epoch: 22 August)

Date Brightness Start Highest point End Pass type
(mag) Time Alt. Az. Time Alt. Az. Time Alt. Az.
26 Aug -1.3 05:54:47 10° S 05:57:03 18° SE 05:59:19 10° E visible
28 Aug -3.1 05:46:07 10° SSW 05:49:15 50° SE 05:52:25 10° ENE visible
29 Aug -2.0 04:56:29 21° SSE 04:57:20 23° SE 04:59:59 10° ENE visible
30 Aug -3.6 05:39:33 20° WSW 05:41:34 54° NW 05:44:47 10° NE visible
